This demonstration page uses our WeatherBlox Daily Observations layout. Learn more.

Left ArrowRight Arrow

39.29038, -76.61219

Hourly Observations for February 16, 2019

Temp ( °F °C ) Dew Point ( °F °C ) Humidity (%) Winds ( mph kmh ) Pressure ( in mb ) Visibility ( mi km ) Precip ( " mm )
12:54 am 00:54 undefined 49 9.4 14 -10 25 25 undefined N/A 29.80 1009 N/A N/A
1:54 am 01:54 undefined 47 8.3 18 -7.8 31 31 undefined N/A 29.81 1010 N/A N/A
2:54 am 02:54 undefined 46 7.8 15 -9.4 29 29 undefined N/A 29.83 1010 N/A N/A
3:54 am 03:54 undefined 45 7.2 16 -8.9 31 31 undefined N/A 29.83 1010 N/A N/A
4:54 am 04:54 undefined 43 6.1 16 -8.9 34 34 undefined N/A 29.84 1011 N/A N/A
5:54 am 05:54 undefined 42 5.6 15 -9.4 33 33 undefined N/A 29.87 1011 N/A N/A
6:54 am 06:54 undefined 40 4.4 15 -9.4 36 36 undefined N/A 29.88 1012 N/A N/A
7:54 am 07:54 undefined 39 3.9 15 -9.4 38 38 undefined N/A 29.90 1013 N/A N/A
8:54 am 08:54 undefined 39 3.9 18 -7.8 43 43 undefined N/A 29.92 1013 N/A N/A
9:54 am 09:54 undefined 39 3.9 19 -7.2 45 45 undefined N/A 29.93 1014 N/A N/A
10:54 am 10:54 undefined 40 4.4 18 -7.8 41 41 undefined N/A 29.94 1014 N/A N/A
11:54 am 11:54 undefined 40 4.4 18 -7.8 41 41 undefined N/A 29.93 1014 N/A N/A
12:54 pm 12:54 undefined 42 5.6 19 -7.2 40 40 undefined N/A 29.90 1012 N/A N/A
1:54 pm 13:54 undefined 44 6.7 20 -6.7 38 38 undefined N/A 29.89 1012 N/A N/A
2:54 pm 14:54 undefined 45 7.2 21 -6.1 39 39 undefined N/A 29.90 1013 N/A N/A
3:54 pm 15:54 undefined 44 6.7 20 -6.7 38 38 undefined N/A 29.91 1013 N/A N/A
4:54 pm 16:54 undefined 43 6.1 19 -7.2 38 38 undefined N/A 29.92 1013 N/A N/A
5:54 pm 17:54 undefined 42 5.6 18 -7.8 38 38 undefined N/A 29.94 1014 N/A N/A
6:54 pm 18:54 undefined 41 5 18 -7.8 39 39 undefined N/A 29.97 1015 N/A N/A
7:54 pm 19:54 undefined 40 4.4 18 -7.8 41 41 undefined N/A 29.98 1015 N/A N/A
8:54 pm 20:54 undefined 39 3.9 19 -7.2 45 45 undefined N/A 30.01 1016 N/A N/A
9:54 pm 21:54 undefined 39 3.9 19 -7.2 45 45 undefined N/A 30.03 1017 N/A N/A
10:54 pm 22:54 undefined 37 2.8 19 -7.2 48 48 undefined N/A 30.05 1018 N/A N/A
11:54 pm 23:54 undefined 37 2.8 19 -7.2 48 48 undefined N/A 30.05 1018 N/A N/A

Powered by AerisWeather